Regional Weather Roundup
Issued by NWS

Home | Current Version | Previous Version | Text Only | Print | Product List | Glossary Off
Versions: 1 2 3 4 5 6 7 8 9 10 11 12 13 14 15 16 17 18 19 20 21 22 23 24 25 26 27 28 29 30 31 32 33 34 35 36 37 38 39 40 41 42 43 44 45 46 47 48 49 50

000
ASUS43 KLOT 241003
RWRIL

ILLINOIS REGIONAL WEATHER ROUNDUP
NATIONAL WEATHER SERVICE CHICAGO/ROMEOVILLE IL
500 AM CDT MON APR 24 2017

NOTE: "FAIR" INDICATES FEW OR NO CLOUDS BELOW 12,000 FEET WITH NO
SIGNIFICANT WEATHER AND/OR OBSTRUCTIONS TO VISIBILITY.

* THESE STATIONS ARE NOT UNDER NWS QUALITY CONTROL. THEY ALSO MAY NOT
  REPORT WEATHER SUCH AS PRECIPITATION OR FOG.

ILZ001-002-007-009-015-016-024-241100-
NORTHWEST ILLINOIS

CITY           SKY/WX    TMP DP  RH WIND       PRES   REMARKS
MOLINE         PTCLDY    43  36  76 CALM      29.96F
STERLING*      CLEAR     43  34  70 E3        29.99S
SAVANNA*       CLOUDY    42  38  86 NE5       29.98S
$$

ILZ003-004-008-010-011-017-018-241100-
NORTH CENTRAL ILLINOIS

CITY           SKY/WX    TMP DP  RH WIND       PRES   REMARKS
ROCKFORD       PTCLDY    44  36  73 E5        30.01F
FREEPORT*      CLEAR     39  32  77 E5        30.00F
ROCHELLE*      CLEAR     44  35  70 SE8       30.00F
DE KALB*       CLEAR     40  35  84 E6        30.01S
PERU*          CLEAR     41  32  70 NE5       30.00S
$$

ILZ005-006-012>014-019>023-241100-
NORTHEAST ILLINOIS

CITY           SKY/WX    TMP DP  RH WIND       PRES   REMARKS
CHICAGO-OHARE  PTCLDY    41  36  82 NE5       30.02R
CHICAGO-MIDWAY PTCLDY    43  38  82 N6        30.02F
AURORA         CLEAR     40  36  86 NE3       30.02R
LANSING*       CLEAR     41  41 100 CALM      30.01S
JOLIET*        CLEAR     43  39  85 N3        30.00F
WAUKEGAN       CLEAR     35  32  88 CALM      30.02S
DUPAGE AIRPORT CLEAR     37  37 100 NE5       30.01S WCI  33
KANKAKEE*      CLEAR     39  29  67 CALM      30.01S
WHEELING       CLEAR     39  38  96 E3        30.04R
MORRIS*        CLEAR     39  32  77 CALM      30.00S
NORTHERLY ISL    N/A     42  39  89 N5          N/A
$$

LMZ740>746-241100-
SOUTHERN LAKE MICHIGAN

STATION/POSITION SKY/WX   TEMP    WIND        PRES    VSBY  WAVE
                          AIR SEA DIR/SP/G                  HT/PER
                          (F)     (DEG/KT/KT) (MB)    (MI)  (FT/S)
SOUTHERN BUOY              40 40  350/  2/  4 1017.1          3/ 7
HARRISON CRIB              42     360/  8/  9   N/A
BURNHAM HARBOR             42     360/  5/  9   N/A
CALUMET HARBOR             43     350/  6/  8 1016.0F
BURNS HARBOR               46      20/  5/  6 1016.9S
MICHIGAN CITY              46      80/  3/  4   N/A
ST. JOSEPH                 49 50   40/  2/  4 1016.8F         3/ 2
$$

ILZ025>027-034>036-040-047-049-050-058-095>099-241100-
WEST-CENTRAL ILLINOIS

CITY           SKY/WX    TMP DP  RH WIND       PRES   REMARKS
QUINCY         CLEAR     49  29  46 SE7       29.96S
GALESBURG*     CLOUDY    42  33  72 CALM      29.96S
MACOMB*        CLEAR     41  33  72 CALM      29.99S
JACKSONVILLE*  CLOUDY    41  31  66 E3        29.96S
PITTSFIELD*    CLEAR     41  36  83 W3        29.97S
$$

ILZ028>032-037-038-041>044-048-051>054-059>061-241100-
CENTRAL ILLINOIS

CITY           SKY/WX    TMP DP  RH WIND       PRES   REMARKS
PONTIAC        CLEAR     44  31  61 E6        29.99F
BLOOMINGTON    CLEAR     47  26  44 E8        29.99S
DECATUR        CLEAR     40  28  62 NE6       29.97F
PEORIA         CLEAR     44  30  57 E3        29.98S
LACON*         CLEAR     40  29  66 CALM      29.98S
LINCOLN*       CLEAR     43  30  59 CALM      29.98R
SPRINGFIELD    CLEAR     49  28  44 E5        29.97F
TAYLORVILLE    CLEAR     44  29  55 CALM      29.96F
$$

ILZ033-039-045-046-055>057-062-063-241100-
EAST-CENTRAL ILLINOIS

CITY           SKY/WX    TMP DP  RH WIND       PRES   REMARKS
CHAMPAIGN      CLEAR     49  29  46 NE9       29.98S
RANTOUL*       CLEAR     46  32  59 NE6       29.99S
MATTOON        CLEAR     41  33  73 CALM      29.95F
PARIS*         CLEAR     43  34  70 NE3       29.98S
$$

ILZ079-100>102-241100-
SOUTHWEST ILLINOIS

CITY           SKY/WX    TMP DP  RH WIND       PRES   REMARKS
ALTON          PTCLDY    46  32  59 N3        29.95F
BELLEVILLE     CLOUDY    43  38  80 N3        29.92F
CAHOKIA*       CLEAR     40  36  86 CALM      29.94S
SPARTA*        CLOUDY    47  33  58 NE6       29.93F
$$

ILZ064>066-069>071-074>076-080>082-084>086-088>090-092>094-241100-
SOUTH-CENTRAL ILLINOIS

CITY           SKY/WX    TMP DP  RH WIND       PRES   REMARKS
CARBONDALE     CLEAR     41  39  93 N6        29.91F
CAIRO*         CLEAR     51  37  60 N5        29.88F
EFFINGHAM*     CLEAR     49  34  55 CALM      29.96F
MARION         CLEAR     43  39  87 NE3       29.91F
MT. VERNON     CLEAR     38  35  89 N5        29.92F WCI  34
CENTRALIA*     CLEAR     43  38  81 CALM      29.92F
SALEM*         CLEAR     52  32  46 NE3       29.93S
METROPOLIS*    CLEAR     48  41  75 N7        29.89S
$$

ILZ067-068-072-073-078-083-087-091-241100-
SOUTHEAST ILLINOIS

CITY           SKY/WX    TMP DP  RH WIND       PRES   REMARKS
LAWRENCEVILLE  CLEAR     48  35  60 N10       29.92F
FLORA*         CLEAR     48  34  58 N7        29.93F
FAIRFIELD*     CLEAR     48  34  58 NE5       29.92R
HARRISBURG*    CLEAR     49  36  62 N7        29.91S
ROBINSON*      CLEAR     40  33  76 N5        29.94F
CARMI*         CLEAR     47  38  69 N7        29.90F
$$

ABBREVIATIONS USED IN REMARKS
   TC - TEMPERATURE IN CELSIUS
  WCI - WIND CHILL INDEX
   HX - HEAT INDEX
  VSB - VISIBILITY
$$




USA.gov is the U.S. government's official web portal to all federal, state and local government web resources and services.